Location: Unspecified
(34.1750°S, 150.8048°E)
Time: 15:56:02
(UTC+11:00)

BlueWalker 3 - Pass Details

Date: 26 September 2023
Orbit: 489 x 504 km, 53.2° (Epoch: 28 November)

Event Time Altitude Azimuth Distance (km) Brightness Sun altitude
Rises 18:55:31 0° 219° (SW) 2,611 6.4 -13.2°
Reaches altitude 10° 18:57:49 10° 211° (SSW) 1,717 5.2 -13.6°
Maximum altitude 19:01:30 41° 139° (SE) 741 2.5 -14.4°
Enters shadow 19:03:03 27° 89° (E) 984 2.8 -14.7°
